391  
ASUS45 KBOU 060610  
RWRCO  
 
WEATHER ROUNDUP FOR COLORADO  
NATIONAL WEATHER SERVICE DENVER/BOULDER CO  
1200 AM MDT MON JUL 06 2020  
 
NOTE: "FAIR" INDICATES FEW OR NO CLOUDS BELOW 12000 FEET WITH NO  
SIGNIFICANT WEATHER AND/OR S TO VISIBILITY
.  
 
COZ001>005-013-030-031-060700-   
..NORTHWEST COLORADO
 
 
 
CITY SKY/WX TMP DP RH WIND PRES REMARKS
 
CRAIG FAIR 59 42 53 NE6 30.15R  
HAYDEN FAIR 61 41 47 N5 30.18S  
MEEKER FAIR 58 37 45 N8 30.18R  
RANGELY FAIR 72 32 22 E7 30.05R  
RABBIT EARS PA FAIR 55 34 44 CALM 30.50F  
STEAMBOAT SPGS FAIR 57 42 57 CALM 30.18S  
WALDEN FAIR 54 34 47 SE7 30.31R  

 
 
COZ006>008-011-060700-   
..WEST CENTRAL VALLEYS
 
 
 
CITY SKY/WX TMP DP RH WIND PRES REMARKS
 
GRAND JUNCTION FAIR 77 31 18 E12 29.99R  
MONTROSE FAIR 74 42 31 SE10 30.12R  
EAGLE FAIR 63 36 36 CALM 30.21S  
RIFLE FAIR 73 39 29 CALM 30.09R  
DELTA FAIR 73 35 24 NE5 30.07R  
NUCLA NOT AVBL  

 
 
COZ017>023-064>068-060700-   
..SOUTHWEST COLORADO
 
 
 
CITY SKY/WX TMP DP RH WIND PRES REMARKS
 
DURANGO FAIR 64 41 42 NE9 30.21R  
CORTEZ FAIR 61 28 28 E9 30.11S  
PAGOSA SPRINGS FAIR 65 41 40 N6 30.31S  
TELLURIDE FAIR 59 37 44 SE8 30.42R  
WOLF CREEK PAS FAIR 45 37 76 N7 30.67F  

 
 
COZ009-010-012-014-032>034-037-058>063-060700-   
..CENTRAL COLORADO
 
 
 
CITY SKY/WX TMP DP RH WIND PRES REMARKS
 
ASPEN FAIR 58 35 42 S9 30.28S  
BUENA VISTA FAIR 54 43 66 NW5 30.38S  
COPPER MTN FAIR 54 36 50 S10G20 30.64S  
BERTHOUD PASS NOT AVBL  
DAKOTA HILL FAIR 50 36 57 SE5 30.56S  
COTTONWOOD PAS FAIR 55 39 54 CALM 30.50S  
GUNNISON FAIR 60 44 55 NE10 30.34S  
GRANBY FAIR 53 40 61 E5 30.34R  
KREMMLING FAIR 54 39 58 CALM 30.28R  
LEADVILLE FAIR 40 37 89 CALM 30.49S  
MONARCH PASS FAIR 48 36 61 CALM 30.74S  
SALIDA FAIR 59 46 61 W10 30.41S  
SUNLIGHT FAIR 57 23 26 CALM 30.55S  
WILKERSON PASS FAIR 48 36 61 SW6 30.62S  

 
 
COZ069>075-060700-   
..SAN LUIS VALLEY/SANGRE DE CRISTO MOUNTAINS
 
 
 
CITY SKY/WX TMP DP RH WIND PRES REMARKS
 
ALAMOSA FAIR 57 47 69 N8 30.33S  
DEL NORTE FAIR 55 47 74 W12 30.38R  
LA VETA PASS FAIR 54 39 58 CALM 30.50F  
SAGUACHE FAIR 52 46 82 N9 30.37S  

 
 
COZ035-036-038>040-060700-   
..NORTHERN COLORADO FRONT RANGE
 
 
 
CITY SKY/WX TMP DP RH WIND PRES REMARKS
 
DENVER INTL AP FAIR 67 47 48 W12 30.12F  
AURORA PTCLDY 64 48 57 S7 30.15S  
WATKINS NOT AVBL  
ERIE FAIR 63 48 57 CALM 30.16F  
BOULDER FAIR 70 45 40 SW6 30.12S  
CENTENNIAL FAIR 69 44 40 SW12 30.17R  
BROOMFIELD FAIR 66 46 48 W5 30.15F  
FORT COLLINS FAIR 66 50 56 SE3 30.10S  
LONGMONT FAIR 67 48 50 W5 30.11F  

 
 
COZ041-046-047-076>085-087-088-060700-   
..PIKES PEAK/PALMER DIVIDE AND SOUTHERN FOOTHILLS
 
 
 
CITY SKY/WX TMP DP RH WIND PRES REMARKS
 
COLO. SPRINGS FAIR 66 45 46 S7 30.22S  
A. F. ACADEMY FAIR 54 50 89 N8 30.23R  
SCHRIEVER AFB NOT AVBL  
CHEYENNE MTN FAIR 64 40 41 CALM 30.22S  
ELLICOTT FAIR 63 46 53 S8 30.22S  
FALCON FAIR 59 46 60 W3 30.27F  
FORT CARSON FAIR 63 46 55 NW6 30.18R  
LIMON FAIR 65 53 65 SE3 30.16R  
MONUMENT HILL FAIR 55 45 67 S9 30.28S  
CANON CITY FAIR 64 52 63 W6 30.17R  
WALSENBURG NOT AVBL  
TRINIDAD FAIR 61 56 83 W7 30.19F  

 
 
COZ042>045-048>051-090-091-060700-   
..NORTHEAST COLORADO
 
 
 
CITY SKY/WX TMP DP RH WIND PRES REMARKS
 
GREELEY FAIR 67 54 63 W3 30.08S  
AKRON FAIR 71 57 61 S9 30.07F  
BURLINGTON FAIR 68 60 75 S10 30.09S  
WRAY FAIR 70 55 60 E7 30.05S  
YUMA NOT AVBL  
STERLING FAIR 68 50 52 SW5 30.02R  
HOLYOKE FAIR 70 57 64 SE13 30.04S  
FORT MORGAN FAIR 65 45 48 CALM 30.07S  

 
 
COZ086-089-092>099-060700-   
..SOUTHEAST COLORADO
 
 
 
CITY SKY/WX TMP DP RH WIND PRES REMARKS
 
PUEBLO FAIR 66 50 56 NE3 30.11S  
LA JUNTA FAIR 71 59 65 S10 30.10R  
LAMAR FAIR 65 59 81 S8 30.06S  
SPRINGFIELD N/A 62 59 90 NW5 30.12S  

 
 
 
CLICK HERE TO GO TO PREVIOUS BULLETINS.

The Nexlab CO Page Main Text Page